Location: Monfort
(47.1967°N, 0.2115°W)
Time: 07:52:51
(UTC+00:00)

Cosmos 1697 Rocket - Pass Details

Date: 24 October 2020
Orbit: 831 x 845 km, 71.0° (Epoch: 28 November)

Event Time Altitude Azimuth Distance (km) Brightness Sun altitude
Rises 20:09:42 0° 218° (SW) 3,365 6.0 -33.1°
Reaches altitude 10° 20:12:10 10° 222° (SW) 2,436 5.3 -33.5°
Enters shadow 20:14:44 27° 232° (SW) 1,539 4.2 -33.9°
